User: anonymous   Login
Location: Stonelick Lake State Park
(39.2170°N, 84.0850°W)
Time: 04:50:38
(UTC-04:00)
Language:

Abrixas rocket - Orbit

View from above orbital plane
View from above orbital plane
View from above satellite
View from above satellite

Ground track
Ground track

The orbit data is extracted from the following two-line orbital elements,

1 25723U 99022C   16268.15132078  .00007073  00000-0  13096-3 0  9990
2 25723  48.4171 141.8166 0011769 196.4709 304.7755 15.49992027965170
Epoch (UTC): 24 September 2016 03:37:54
Eccentricity: 0.0011769
inclination: 48.4171°
perigee height: 409 km
apogee height: 425 km
right ascension of ascending node: 141.8166°
argument of perigee: 196.4709°
revolutions per day: 15.49992027
mean anomaly at epoch: 304.7755°
orbit number at epoch: 96517

The dashed part of the orbit path shows where the satellite is in the earth's shadow,  

DLR